F5IOR-13 Weather Reports


time (UTC)temp
C
wind
direction
speed
KPH
gust
KPH
rain 1hr
cm
rain 24hr
cm
rain mn
cm
humidity
%
barometer
mb
20260509190818 19 131 9.7 16.1 0.00 0.00 0.00 46 982.4
20260509183818 21 140 9.7 17.7 0.00 0.00 0.00 40 982.3
20260509180818 22 148 11.3 19.3 0.00 0.00 0.00 37 982.2
20260509173818 22 155 11.3 22.5 0.00 0.00 0.00 38 982.2
20260509170818 23 156 12.9 25.7 0.00 0.00 0.00 38 982.3
20260509163818 23 162 16.1 32.2 0.00 0.00 0.00 37 982.5
20260509160818 23 162 19.3 32.2 0.00 0.00 0.00 35 982.9
20260509153818 23 157 19.3 33.8 0.00 0.00 0.00 34 983.2
20260509150818 23 155 17.7 33.8 0.00 0.00 0.00 35 983.6
20260509143818 23 161 12.9 32.2 0.00 0.00 0.00 38 983.8
20260509140818 23 164 12.9 30.6 0.00 0.00 0.00 40 984.0
20260509133818 23 165 16.1 30.6 0.00 0.00 0.00 40 984.1
20260509130818 23 163 17.7 29.0 0.00 0.00 0.00 42 984.4
20260509123818 22 160 17.7 29.0 0.00 0.00 0.00 40 984.6
20260509120818 22 159 14.5 29.0 0.00 0.00 0.00 37 984.9
20260509113818 22 162 16.1 29.0 0.00 0.00 0.00 36 985.1
20260509110818 21 166 16.1 29.0 0.00 0.00 0.00 37 985.3
20260509103818 20 163 16.1 29.0 0.00 0.00 0.00 39 985.4
20260509100818 18 166 11.3 20.9 0.00 0.00 0.00 53 986.5
20260509093818 18 168 11.3 20.9 0.00 0.00 0.00 56 986.7
20260509092218 17 171 11.3 19.3 0.00 0.00 0.00 60 986.9
20260509090618 17 173 11.3 19.3 0.00 0.00 0.00 62 987.0
20260509085018 16 173 11.3 19.3 0.00 0.00 0.00 64 986.9
20260509083418 16 174 9.7 17.7 0.00 0.00 0.00 68 986.8
20260509082618 16 174 9.7 17.7 0.00 0.00 0.00 68 986.8
20260509081818 16 174 9.7 17.7 0.00 0.00 0.00 68 986.8
20260509081018 15 176 9.7 16.1 0.00 0.00 0.00 69 986.8
20260509080218 15 176 9.7 16.1 0.00 0.00 0.00 69 986.8
20260509075818 15 180 8.0 16.1 0.00 0.00 0.00 70 986.7
20260509075418 15 180 8.0 16.1 0.00 0.00 0.00 70 986.7
20260509075018 15 180 8.0 16.1 0.00 0.00 0.00 70 986.7
20260509074618 15 180 8.0 16.1 0.00 0.00 0.00 70 986.7
20260509074418 15 180 8.0 16.1 0.00 0.00 0.00 70 986.7
20260509074218 15 180 8.0 16.1 0.00 0.00 0.00 70 986.7
20260509074018 15 180 8.0 16.1 0.00 0.00 0.00 70 986.7
20260509073818 15 180 8.0 16.1 0.00 0.00 0.00 70 986.7
20260509073718 15 180 8.0 16.1 0.00 0.00 0.00 70 986.7
20260509073618 15 180 8.0 16.1 0.00 0.00 0.00 70 986.7
20260509073518 15 180 8.0 16.1 0.00 0.00 0.00 70 986.7